Regional Weather Roundup
Issued by NWS

Home | Current Version | Previous Version | Graphics & Text | Print | Product List | Glossary On
Versions: 1 2 3 4 5 6 7 8 9 10 11 12 13 14 15 16 17 18 19 20 21 22 23 24 25 26 27 28 29 30 31 32 33 34 35 36 37 38 39 40 41 42 43 44 45 46 47 48 49 50
000
ASUS44 KMEG 310300
RWRTN
TENNESSEE HOURLY STATE WEATHER ROUNDUP
NATIONAL WEATHER SERVICE MEMPHIS TN
1000 PM CDT MON MAY 30 2016

TNZ002-004-019-021-049-052-054-088>092-310400-
WEST TENNESSEE

CITY           SKY/WX    TMP DP  RH WIND       PRES   REMARKS
MEMPHIS INTL   CLOUDY    82  63  52 E3        29.97R
NWS MEMPHIS      N/A     74 N/A N/A MISG        N/A
JACKSON        CLOUDY    70  66  87 CALM      29.98R
DYERSBURG      CLOUDY    75  66  73 CALM      29.97S
UNION CITY     CLEAR     73  68  83 CALM      29.97S
PARIS          CLEAR     66  63  88 CALM      29.99F
LEXINGTON      CLEAR     70  66  88 CALM      29.98S
$$

TNZ008-025-027-028-033-062-065-066-310400-
NORTH MIDDLE TENNESSEE

CITY           SKY/WX    TMP DP  RH WIND       PRES   REMARKS
NASHVILLE      PTCLDY    76  58  53 N3        29.99R
CLARKSVILLE    CLEAR     70  61  73 CALM      29.98S
COOKEVILLE     CLEAR     63  61  94 CALM      30.00S
CROSSVILLE     CLEAR     68  58  70 CALM      30.05R
$$

TNZ061-075-076-078-094-096-097-310400-
SOUTH MIDDLE TENNESSEE

CITY           SKY/WX    TMP DP  RH WIND       PRES   REMARKS
TULLAHOMA      CLEAR     66  63  88 CALM      30.02R
WINCHESTER     CLEAR     72  61  68 CALM      30.00S
MCMINNVILLE    CLEAR     66  61  82 CALM      30.01R
COLUMBIA       CLEAR     70  70 100 CALM      29.98S
SHELBYVILLE    CLEAR     70  61  73 CALM      30.01R
$$

TNZ017-018-042-046-047-310400-
NORTHEAST TENNESSEE

CITY           SKY/WX    TMP DP  RH WIND       PRES   REMARKS
TRI CITIES     CLEAR     65  60  84 CALM      30.03R
$$

TNZ012-013-036-069-073-074-310400-
CENTRAL EAST TENNESSEE

CITY           SKY/WX    TMP DP  RH WIND       PRES   REMARKS
KNOXVILLE      PTCLDY    69  67  93 E6        29.99R
OAK RIDGE      CLEAR     73  63  70 CALM      30.01R
GATLINBURG     CLEAR     66  61  82 CALM      30.00S
$$

TNZ083-085-099-310400-
SOUTHEAST TENNESSEE

CITY           SKY/WX    TMP DP  RH WIND       PRES   REMARKS
CHATTANOOGA    PTCLDY    76  60  57 CALM      29.97R
$$

SKY/WX REPORTED AS FAIR MEANS FEW OR NO CLOUDS BELOW
12 THOUSAND FEET.





USA.gov is the U.S. government's official web portal to all federal, state and local government web resources and services.